Location: Northern Prairie Star Party
(53.2167°N, 112.5333°W)
Time: 03:15:44
(UTC-07:00)

Daily predictions for brighter satellites

Satellite Brightness Start Highest point End
(mag) Time Altitude Azimuth Time Altitude Azimuth Time Altitude Azimuth
Cosmos 2237 Rocket 4.1 03:52:17 25° ENE 03:52:17 25° ENE 03:55:24 10° NE
CENTAUR R/B 4.2 03:58:46 24° SE 04:00:01 26° ESE 04:05:27 10° ENE
Cosmos 2369 Rocket 4.0 04:12:19 24° NNE 04:12:33 24° NNE 04:17:09 10° E
ADEOS II 3.8 04:09:26 10° NNE 04:12:25 28° NE 04:12:25 28° NE
ATLAS 3B R/B 3.6 04:17:17 41° NNE 04:17:17 41° NNE 04:22:22 10° NE
Lacrosse 5 rocket 4.3 04:19:05 14° ENE 04:19:05 14° ENE 04:19:50 10° ENE
NOSS 3-2 (C) 4.0 04:26:56 59° NE 04:26:56 59° NE 04:32:31 10° NE
Cosmos 2219 Rocket 3.3 04:31:12 38° NE 04:31:12 38° NE 04:34:38 10° NNE
CZ-4C R/B 3.6 04:32:24 35° NNE 04:32:24 35° NNE 04:37:06 10° NE
ATLAS 5 CENTAUR R/B 3.7 04:33:24 26° NNE 04:33:24 26° NNE 04:36:17 10° NE
Cosmos 2333 Rocket 2.9 04:38:55 48° NE 04:38:55 48° NE 04:43:03 10° NE
NOSS 3-2 (A) 3.7 04:53:08 64° N 04:53:08 64° N 04:59:29 10° NE
Cosmos 1371 Rocket 4.5 04:55:32 58° ENE 04:55:34 58° ENE 05:00:47 10° SE
ADEOS Rocket 4.1 04:54:23 10° N 04:57:12 30° N 04:57:12 30° N
NOSS 0 Rocket 3.8 05:01:24 90° S 05:01:24 90° S 05:07:41 10° NE
SL-16 R/B 3.1 04:59:24 19° S 05:03:14 45° ESE 05:08:37 10° NE
Cosmos 1943 Rocket 3.9 05:04:22 20° N 05:06:33 26° NE 05:11:07 10° E
COSMOS 2428 3.8 05:10:55 32° N 05:10:55 32° N 05:14:28 10° NNE
Cosmos 2322 Rocket 4.1 05:14:31 16° N 05:14:31 16° N 05:16:51 10° NNE
Cosmos 2360 Rocket 3.8 05:17:52 21° N 05:17:52 21° N 05:20:36 10° NNE
Lacrosse 4 Rocket 3.5 05:17:31 18° NNE 05:17:56 19° NNE 05:20:56 10° ENE
Cosmos 1980 Rocket 4.3 05:18:37 13° N 05:18:37 13° N 05:20:56 10° NNE
COSMOS 2455 4.1 05:22:04 26° NNW 05:22:04 26° NNW 05:26:40 10° NE
USA 215 4.2 05:16:38 10° ENE 05:22:50 44° SE 05:28:10 14° SSW
Cosmos 1680 Rocket 4.0 05:19:30 11° S 05:24:23 58° ESE 05:29:31 10° NNE
SKYMED 2 3.7 05:20:58 10° SSE 05:24:53 69° SE 05:24:53 69° SE
Cosmos 2151 Rocket 4.2 05:21:19 10° S 05:25:44 56° E 05:30:09 10° NNE
CZ-4B R/B 4.2 05:24:29 10° NNE 05:28:58 78° ESE 05:30:17 46° S
Meteor 1-28 Rocket 4.1 05:29:32 10° SE 05:33:11 49° ENE 05:33:59 41° NNE
Cosmos 2237 Rocket 2.1 05:34:09 62° WNW 05:34:19 63° NW 05:39:57 10° NNE
Feng Yun 1-1 Rocket 4.1 05:30:43 10° NNE 05:36:27 84° WNW 05:42:00 10° SSW
CZ-4B R/B 4.1 05:31:28 10° N 05:34:56 33° NNW 05:34:56 33° NNW
NOAA 6 4.3 05:32:16 10° NNE 05:37:25 68° ESE 05:42:31 10° S
Tiangong 2 4.1 05:38:00 11° SSE 05:38:00 11° SSE 05:38:31 10° SSE
Cosmos 1709 Rocket 3.9 05:36:53 49° WSW 05:38:05 57° WNW 05:44:16 10° N
SL-16 R/B 4.1 05:39:56 15° NNW 05:39:56 15° NNW 05:42:50 10° NNE
Okean-O 3.7 05:36:13 10° N 05:38:47 33° N 05:38:47 33° N
Cosmos 1536 Rocket 3.7 05:43:30 58° SSW 05:43:30 58° SSW 05:47:12 10° S
Meteor 1-18 Rocket 4.3 05:41:22 46° NW 05:42:48 58° W 05:48:35 10° S
Cosmos 2112 Rocket 4.2 05:38:04 10° SSW 05:43:14 70° ESE 05:48:26 10° NNE
USA 238 DEB 4.4 05:44:54 34° NW 05:46:40 39° NNW 05:53:14 10° NE
USA 238 4.4 05:44:59 34° NW 05:46:46 39° NNW 05:53:20 10° NE
Cosmos 1238 Rocket 3.8 05:47:59 41° SW 05:47:59 41° SW 05:51:51 10° S
Helios 1B rocket 4.2 05:46:03 10° SE 05:49:45 31° ENE 05:53:25 10° N
CENTAUR R/B 2.6 05:46:00 27° SW 05:49:47 89° SE 05:57:04 10° NE
ADEOS II 2.6 05:49:12 10° N 05:53:22 39° NW 05:53:22 39° NW
Lacrosse 5 rocket 1.3 05:54:49 65° NW 05:55:01 66° NNW 05:59:20 10° ENE
SL-23 DEB 3.8 05:56:34 51° S 05:56:34 51° S 05:59:30 10° ESE
Cosmos 2369 Rocket 2.3 05:54:08 26° NNW 05:57:31 78° ENE 06:03:15 10° SE
Cosmos 1025 Rocket 3.9 05:55:52 10° N 06:00:11 50° ENE 06:04:27 10° SSE
Cosmos 1315 Rocket 4.2 06:07:43 25° NNW 06:07:43 25° NNW 06:09:39 10° N
ATLAS 3B R/B 3.7 06:04:33 25° NW 06:07:44 35° N 06:14:03 10° ENE
Cosmos 921 Rocket 4.0 06:08:51 30° SW 06:08:51 30° SW 06:11:55 10° SSW
Okean 1 Rocket 3.7 06:03:51 10° S 06:08:11 58° E 06:12:30 10° NNE
Cosmos 1980 4.2 06:07:32 36° WNW 06:08:34 39° NW 06:13:55 10° NNE
Okean 1-7 Rocket 3.5 06:06:21 15° N 06:09:59 89° E 06:14:22 10° S
SJ-6F 4.3 06:07:00 10° N 06:11:03 59° WNW 06:15:03 10° SSW
Meteor 1-20 Rocket 4.0 06:06:10 10° SSW 06:11:43 71° WNW 06:17:14 10° N
COSMO-SKYMED 1 3.0 06:09:24 10° SSW 06:13:28 39° W 06:13:28 39° W
Cosmos 2219 Rocket 3.0 06:12:57 29° NW 06:13:29 30° NW 06:18:27 10° NNE
Lacrosse 5 4.3 06:11:09 10° S 06:15:01 22° SE 06:18:54 10° E
ATLAS 5 CENTAUR R/B 3.3 06:14:57 23° NNW 06:17:02 29° N 06:22:07 10° ENE
NOSS 3-2 (C) 4.1 06:14:23 30° WNW 06:17:09 44° NNW 06:24:00 10° NE
Nadezhda 3 Rocket 3.9 06:12:30 10° NNW 06:18:52 75° W 06:25:14 10° S
Cosmos 2056 Rocket 3.7 06:17:27 31° NW 06:19:27 47° WSW 06:24:20 10° S
Okean 1 4.5 06:21:04 26° SW 06:21:04 26° SW 06:23:28 10° SSW
CZ-4C R/B 3.6 06:17:35 22° NW 06:20:52 35° N 06:27:18 10° ENE
Cosmos 1900 4.4 06:18:55 26° NW 06:21:44 77° NE 06:26:39 10° SE
Cosmos 2333 Rocket 3.0 06:20:58 29° WNW 06:22:10 32° NW 06:27:13 10° NNE
Cosmos 1420 Rocket 4.4 06:19:23 13° NNW 06:24:08 63° ENE 06:29:20 10° SE
Okean 2 3.9 06:25:18 10° N 06:29:28 61° ENE 06:33:37 10° SSE
Cosmos 1892 Rocket 4.2 06:25:21 10° N 06:29:46 58° ENE 06:34:11 10° SSE
Meteor 1-19 Rocket 4.3 06:25:50 10° NNW 06:31:39 62° W 06:37:22 10° S
IDEFIX/ARIANE 42P 3.9 06:28:27 10° NNE 06:33:24 42° E 06:38:19 10° SSE
Ariane Rocket 2.9 06:32:27 10° NNE 06:37:31 72° WNW 06:42:33 10° SSW
Meteor 1-29 3.3 06:34:38 10° SSE 06:37:59 63° ENE 06:41:22 10° N
Cosmos 923 Rocket 4.5 06:34:19 16° WSW 06:38:10 38° NW 06:43:07 10° NNE
Cosmos 1346 Rocket 4.1 06:40:03 21° WSW 06:40:03 21° WSW 06:42:17 10° SW
Cosmos 1300 Rocket 3.5 06:35:52 10° SSW 06:40:15 60° WNW 06:44:38 10° N
Meteor 1-11 Rocket 3.8 06:35:19 10° SSW 06:41:11 87° WNW 06:46:57 10° NNE
Cosmos 1602 3.7 06:37:29 10° SSW 06:41:25 66° WNW 06:45:24 10° N
Cosmos 2341 Rocket 4.0 06:36:39 10° S 06:42:57 88° E 06:49:15 10° N
NOSS 3-2 (A) 4.4 06:40:33 21° WNW 06:44:30 38° N 06:51:15 10° ENE
ADEOS Rocket 4.5 06:41:28 10° NNW 06:44:09 15° NW 06:44:09 15° NW
Cosmos 962 Rocket 4.5 06:38:34 10° S 06:44:46 90° WNW 06:51:05 10° N
Cosmos 2074 Rocket 4.3 06:40:08 10° SW 06:46:03 42° WNW 06:51:59 10° N
SL-16 R/B 2.5 06:42:01 10° WSW 06:47:25 44° NW 06:52:52 10° NNE
Cosmos 292 Rocket 4.2 06:43:22 10° SW 06:47:56 41° NW 06:52:31 10° NNE
CZ-4 R/B 1.7 06:44:16 10° NNE 06:48:18 69° ESE 06:52:13 10° S
SL-24 DEB 4.5 06:45:55 10° SSW 06:50:34 50° W 06:55:16 10° NNW
Cosmos 1943 Rocket 2.1 06:45:54 12° NNW 06:51:02 89° WSW 06:56:33 10° SSE
COSMOS 2428 4.3 06:52:57 15° NW 06:54:52 17° NNW 06:58:34 10° NNE
Lacrosse 4 Rocket 1.6 06:53:52 14° NNW 06:57:26 67° NE 07:01:33 10° SE
Cosmos 2263 4.3 06:53:18 13° NW 06:58:14 58° WSW 07:03:43 10° SSE
Cosmos 2322 Rocket 4.2 06:56:59 10° NNW 06:59:36 13° N 07:02:12 10° NNE
Cosmos 2184 Rocket 4.5 06:54:23 10° SW 07:00:00 36° WNW 07:05:41 10° N
Cosmos 2360 Rocket 4.1 06:59:39 11° NW 07:02:03 13° N 07:04:44 10° NNE
Meteor 1-23 Rocket 4.3 06:57:12 10° NNW 07:02:38 55° W 07:08:02 10° S
Cosmos 1455 Rocket 4.1 06:59:34 10° SSE 07:03:43 48° E 07:07:55 10° NNE
Cosmos 1980 Rocket 4.2 07:01:33 10° NNW 07:04:50 15° NNE 07:08:06 10° NE
USA 215 3.3 06:59:42 10° ENE 07:06:16 87° NNW 07:12:50 10° WSW
Cosmos 1680 Rocket 4.2 07:02:14 10° WSW 07:06:51 31° NW 07:11:28 10° NNE
Cosmos 1452 Rocket 4.0 07:04:14 11° NW 07:08:59 42° WSW 07:13:55 10° S
COSMOS 2455 4.4 07:05:13 11° NW 07:09:31 22° N 07:14:10 10° ENE
Cosmos 1633 3.1 07:06:13 10° SW 07:09:36 35° WNW 07:13:00 10° N
Cosmos 1536 2.9 07:07:01 10° SSW 07:10:56 52° WNW 07:14:53 10° N
Tiangong 2 3.8 07:12:03 10° SSW 07:13:31 13° S 07:14:59 10° SSE
Cosmos 2154 Rocket 4.2 07:09:08 10° SW 07:15:06 48° WNW 07:21:06 10° N
Okean-O 4.4 07:14:31 10° NNW 07:16:19 12° NW 07:16:22 12° NW
IRS-1A Rocket 4.3 07:11:04 10° NNE 07:16:40 67° WNW 07:22:22 10° SSW
BREEZE-M DEB (TANK) 4.5 07:04:55 10° W 07:19:09 67° S 07:23:06 10° ESE
Cosmos 2237 Rocket 3.5 07:16:01 12° WNW 07:19:32 21° NNW 07:23:45 10° NNE
Meteor 2-4 Rocket 4.3 07:16:04 10° NNW 07:20:59 35° W 07:25:59 10° SSW
Cosmos 1340 3.0 07:18:01 10° NNW 07:21:39 43° W 07:25:15 10° SSW
Cosmos 1656 Rocket 3.8 07:16:04 10° NNW 07:21:44 80° ENE 07:27:26 10° SE
AQUARIUS 4.1 07:18:42 10° NNE 07:23:13 76° WNW 07:27:42 10° SSW
Cosmos 1339 Rocket 4.5 07:18:46 10° NNW 07:24:56 85° W 07:31:10 10° S
Helios 1B rocket 3.1 07:21:11 10° SSW 07:25:00 35° W 07:28:52 10° NNW
CZ-2C R/B 2.5 07:20:27 10° NNE 07:25:40 76° WNW 07:30:48 10° SSW
SL-16 R/B 4.2 07:23:21 10° NNW 07:26:12 14° N 07:29:02 10° NE
YAOGAN 1 2.5 07:22:40 10° NNE 07:27:02 74° WNW 07:31:21 10° SSW
Cosmos 1484 Rocket 3.3 07:24:00 10° NNE 07:27:44 63° ESE 07:31:30 10° S
CSL-04 Debris 4.5 07:24:14 10° N 07:29:22 45° WNW 07:34:33 10° SW
CSL-04 Rocket 4.1 07:24:13 10° N 07:29:24 40° WNW 07:34:31 10° SW
ADEOS II 3.9 07:31:47 10° NNW 07:32:36 10° NW 07:33:26 10° NW
Lacrosse 5 rocket 1.8 07:30:34 10° WNW 07:34:42 51° N 07:39:03 10° E
SMAP 3.1 07:32:42 10° N 07:37:18 60° WNW 07:41:53 10° SSW
Cosmos 1025 Rocket 4.3 07:34:05 10° NW 07:37:29 22° W 07:40:52 10° SW
Meteor 1-5 Rocket 4.1 07:33:52 10° SSW 07:39:11 63° WNW 07:44:28 10° N
COSMOS 2441 4.5 07:34:44 10° NNE 07:39:42 88° ESE 07:44:36 10° SSW
Cosmos 1602 Rocket 3.6 07:35:35 10° NNW 07:40:06 81° W 07:44:35 10° S
Cosmos 1697 Rocket 4.3 07:35:35 10° NNW 07:40:09 24° NE 07:44:42 10° E
Cosmos 2369 Rocket 3.4 07:36:33 10° NW 07:40:59 23° WSW 07:45:23 10° SSW
CENTAUR R/B 3.2 07:34:55 10° W 07:41:15 43° NNW 07:48:25 10° NE
Resurs 01 Rocket 4.3 07:38:09 10° NE 07:41:42 22° E 07:45:12 10° SE
MSX 3.9 07:38:25 10° NNE 07:44:12 87° WNW 07:49:57 10° SSW
Cosmos 1603 4.1 07:39:34 10° WSW 07:44:55 41° NW 07:50:18 10° NNE
Cosmos 44 3.7 07:39:42 10° SW 07:45:01 76° SE 07:50:09 10° NE
Okean 1 Rocket 4.3 07:43:09 10° WSW 07:46:28 21° WNW 07:49:49 10° NNW
Cosmos 1269 Rocket 4.2 07:44:18 10° SSW 07:49:35 82° ESE 07:54:56 10° NNE
SWAS 4.5 07:45:50 10° NW 07:50:07 73° WSW 07:54:23 10° SSE
SL-8 Rocket 4.2 07:46:14 10° SSW 07:52:19 52° WNW 07:58:24 10° N
